Weather History for KCLS - September, 2012

Change the Weather History Date:

Friday, September 28, 2012

  Actual Average (KOLM) Record (KOLM)
Temperature  
Mean Temperature 66 °F 56 °F  
Max Temperature 80 °F 68 °F 85 °F (2003)
Min Temperature 53 °F 43 °F 30 °F (1999)
Degree Days  
Heating Degree Days 0 10  
Month to date heating degree days 171  
Since 1 July heating degree days 321  
Cooling Degree Days 2 0  
Month to date cooling degree days 4  
Year to date cooling degree days 103  
Growing Degree Days 16 (Base 50)    
Moisture  
Dew Point 53 °F    
Average Humidity 73    
Maximum Humidity 94    
Minimum Humidity 34    
Precipitation  
Precipitation 0.00 in 0.07 in 2.93 in (2013)
Month to date precipitation 1.56  
Year to date precipitation 29.16  
Sea Level Pressure  
Sea Level Pressure 29.99 in    
Wind  
Wind Speed 1 mph (WNW)    
Max Wind Speed 8 mph    
Max Gust Speed -    
Visibility 9 miles    
Events Rain    
T = Trace of Precipitation, MM = Missing Value Source: NWS Daily Summary

Daily Weather History Graph

Daily Weather History Graph

Search for Another Location

Airport or City:

Trip Planner

Search our weather history database for the weather conditions in past years. The results will help you decide how hot, cold, wet, or windy it might be!

Date:

Astronomy

Sep. 28, 2012 Rise Set
Actual Time 7:07 AM PDT 6:56 PM PDT
Civil Twilight 6:37 AM PDT 7:26 PM PDT
Nautical Twilight 6:02 AM PDT 8:01 PM PDT
Astronomical Twilight 5:26 AM PDT 8:37 PM PDT
Moon 6:01 PM PDT (9/28) 5:41 AM PDT (9/28)
Length of Visible Light 12h 49m
Length of Day
11h 49m
Waxing Gibbous, 98% of the Moon is Illuminated
Sep 28
Waxing Gibbous
Sep 29
Full
Oct 8
Last Quarter
Oct 15
New
Oct 21
First Quarter

Hourly Weather History & Observations

Time (PDT) Temp. Heat Index Dew Point Humidity Pressure Visibility Wind Dir Wind Speed Gust Speed Precip Events Conditions
12:15 AM 53.6 °F - 50.0 °F 88% 29.97 in 10.0 mi Calm Calm - N/A   Clear
12:35 AM 53.6 °F - 50.0 °F 88% 29.97 in 10.0 mi Calm Calm - N/A   Clear
12:55 AM 53.6 °F - 50.0 °F 88% 29.97 in 10.0 mi Calm Calm - N/A   Clear
1:15 AM 53.6 °F - 50.0 °F 88% 29.97 in 10.0 mi Calm Calm - N/A   Clear
1:35 AM 53.6 °F - 50.0 °F 88% 29.97 in 10.0 mi Calm Calm - N/A   Clear
1:55 AM 53.6 °F - 50.0 °F 88% 29.96 in 10.0 mi Calm Calm - N/A   Clear
2:15 AM 53.6 °F - 50.0 °F 88% 29.96 in 10.0 mi Calm Calm - N/A   Clear
2:35 AM 53.6 °F - 50.0 °F 88% 29.96 in 10.0 mi Calm Calm - N/A   Clear
2:55 AM 53.6 °F - 50.0 °F 88% 29.96 in 10.0 mi Calm Calm - N/A   Clear
3:15 AM 53.6 °F - 50.0 °F 88% 29.96 in 10.0 mi Calm Calm - N/A   Clear
3:35 AM 53.6 °F - 50.0 °F 88% 29.96 in 10.0 mi Calm Calm - N/A   Clear
3:55 AM 53.6 °F - 50.0 °F 88% 29.96 in 10.0 mi Calm Calm - N/A   Clear
4:15 AM 53.6 °F - 50.0 °F 88% 29.95 in 10.0 mi Calm Calm - N/A   Clear
4:35 AM 53.6 °F - 50.0 °F 88% 29.95 in 10.0 mi Calm Calm - N/A   Clear
4:55 AM 53.6 °F - 50.0 °F 88% 29.96 in 10.0 mi Calm Calm - N/A   Clear
5:15 AM 53.6 °F - 50.0 °F 88% 29.96 in 10.0 mi Calm Calm - N/A   Clear
5:35 AM 53.6 °F - 50.0 °F 88% 29.96 in 10.0 mi Calm Calm - N/A   Clear
5:55 AM 53.6 °F - 50.0 °F 88% 29.96 in 10.0 mi Calm Calm - N/A   Clear
6:15 AM 53.6 °F - 50.0 °F 88% 29.96 in 10.0 mi Calm Calm - N/A   Clear
6:35 AM 53.6 °F - 50.0 °F 88% 29.97 in 10.0 mi Calm Calm - N/A   Clear
6:55 AM 53.6 °F - 50.0 °F 88% 29.97 in 10.0 mi Calm Calm - N/A   Clear
7:15 AM 53.6 °F - 50.0 °F 88% 29.97 in 8.0 mi Calm Calm - N/A   Clear
7:35 AM 53.6 °F - 50.0 °F 88% 29.98 in 7.0 mi Calm Calm - N/A   Clear
7:55 AM 53.6 °F - 50.0 °F 88% 29.98 in 5.0 mi Calm Calm - N/A   Clear
8:15 AM 53.6 °F - 50.0 °F 88% 29.99 in 5.0 mi Calm Calm - N/A   Clear
8:35 AM 53.6 °F - 51.8 °F 94% 29.99 in 9.0 mi Calm Calm - N/A   Clear
8:55 AM 55.4 °F - 51.8 °F 88% 30.00 in 5.0 mi Calm Calm - N/A   Clear
9:15 AM 55.4 °F - 53.6 °F 94% 30.00 in 9.0 mi Calm Calm - N/A   Clear
9:35 AM 57.2 °F - 53.6 °F 88% 30.00 in 5.0 mi SSW 3.5 mph - N/A   Haze
9:55 AM 60.8 °F - 53.6 °F 77% 30.00 in 5.0 mi South 4.6 mph - N/A   Haze
10:15 AM 62.6 °F - 53.6 °F 72% 30.00 in 9.0 mi Calm Calm - N/A   Clear
10:35 AM 62.6 °F - 53.6 °F 72% 30.01 in 10.0 mi West 3.5 mph - N/A   Clear
10:55 AM 64.4 °F - 53.6 °F 68% 30.01 in 10.0 mi WSW 3.5 mph - N/A   Clear
11:15 AM 66.2 °F - 53.6 °F 64% 30.01 in 10.0 mi Calm Calm - N/A   Clear
11:35 AM 68.0 °F - 53.6 °F 60% 30.00 in 10.0 mi Calm Calm - N/A   Clear
12:15 PM 71.6 °F - 53.6 °F 53% 29.99 in 4.0 mi South 3.5 mph - N/A   Haze
12:35 PM 73.4 °F - 53.6 °F 50% 29.99 in 10.0 mi SSW 3.5 mph - N/A   Clear
12:55 PM 73.4 °F - 51.8 °F 47% 29.99 in 5.0 mi Calm Calm - N/A Rain Light Rain
1:15 PM 77.0 °F - 46.4 °F 34% 29.99 in 10.0 mi Calm Calm - N/A Rain Light Rain
1:35 PM 77.0 °F - 50.0 °F 39% 29.98 in 10.0 mi Calm Calm - N/A   Clear
1:55 PM 78.8 °F - 48.2 °F 34% 29.97 in 10.0 mi South 3.5 mph - N/A   Clear
2:15 PM 78.8 °F - 50.0 °F 36% 29.97 in 10.0 mi East 3.5 mph - N/A   Clear
2:35 PM 80.6 °F - 50.0 °F 34% 29.97 in 10.0 mi North 3.5 mph - N/A   Clear
2:55 PM 80.6 °F - 50.0 °F 34% 29.97 in 10.0 mi East 3.5 mph - N/A   Clear
3:15 PM 80.6 °F - 51.8 °F 37% 29.97 in 10.0 mi ESE 4.6 mph - N/A   Clear
3:35 PM 80.6 °F 80.3 °F 53.6 °F 39% 29.96 in 10.0 mi NW 4.6 mph - N/A   Clear
3:55 PM 80.6 °F 80.3 °F 53.6 °F 39% 29.96 in 10.0 mi NNW 5.8 mph - N/A   Clear
4:15 PM 78.8 °F - 53.6 °F 42% 29.96 in 10.0 mi NNW 5.8 mph - N/A   Clear
4:35 PM 77.0 °F - 55.4 °F 47% 29.96 in 5.0 mi NNW 6.9 mph - N/A   Haze
4:55 PM 77.0 °F - 55.4 °F 47% 29.96 in 9.0 mi NW 8.1 mph - N/A   Clear
5:15 PM 75.2 °F - 55.4 °F 50% 29.97 in 5.0 mi NNW 6.9 mph - N/A   Haze
5:35 PM 75.2 °F - 55.4 °F 50% 29.97 in 10.0 mi NW 6.9 mph - N/A   Clear
5:55 PM 75.2 °F - 57.2 °F 53% 29.97 in 5.0 mi NNW 5.8 mph - N/A   Haze
6:15 PM 73.4 °F - 57.2 °F 57% 29.98 in 5.0 mi NW 4.6 mph - N/A   Haze
6:35 PM 71.6 °F - 57.2 °F 60% 29.98 in 9.0 mi NW 5.8 mph - N/A   Clear
6:55 PM 69.8 °F - 57.2 °F 64% 29.99 in 7.0 mi Calm Calm - N/A   Clear
7:15 PM 68.0 °F - 57.2 °F 68% 29.99 in 10.0 mi Calm Calm - N/A   Clear
7:35 PM 68.0 °F - 57.2 °F 68% 30.00 in 10.0 mi WSW 3.5 mph - N/A   Clear
7:55 PM 64.4 °F - 57.2 °F 77% 30.00 in 9.0 mi Calm Calm - N/A   Clear
8:15 PM 62.6 °F - 57.2 °F 82% 30.01 in 9.0 mi Calm Calm - N/A   Clear
8:35 PM 62.6 °F - 57.2 °F 82% 30.01 in 8.0 mi Calm Calm - N/A   Clear
8:55 PM 62.6 °F - 57.2 °F 82% 30.02 in 7.0 mi Calm Calm - N/A   Clear
9:15 PM 59.0 °F - 55.4 °F 88% 30.02 in 8.0 mi Calm Calm - N/A   Clear
9:35 PM 59.0 °F - 55.4 °F 88% 30.03 in 10.0 mi West 3.5 mph - N/A   Clear
9:55 PM 59.0 °F - 55.4 °F 88% 30.03 in 9.0 mi Calm Calm - N/A   Clear
10:15 PM 59.0 °F - 55.4 °F 88% 30.03 in 10.0 mi Calm Calm - N/A   Clear
10:35 PM 59.0 °F - 55.4 °F 88% 30.04 in 10.0 mi Calm Calm - N/A   Clear
10:55 PM 59.0 °F - 55.4 °F 88% 30.05 in 10.0 mi Calm Calm - N/A   Clear
11:15 PM 57.2 °F - 55.4 °F 94% 30.05 in 9.0 mi Calm Calm - N/A   Clear
11:35 PM 59.0 °F - 57.2 °F 94% 30.05 in 6.0 mi SW 3.5 mph - N/A   Scattered Clouds
11:55 PM 59.0 °F - 57.2 °F 94% 30.06 in 6.0 mi Calm Calm - N/A   Scattered Clouds